Location: Antioch Baptist Church
(32.6696°N, 85.7327°W)
Time: 10:32:34
(UTC+00:00)

Cosmos-2242 - Pass Details

Date: 30 October 2020
Orbit: 592 x 616 km, 82.5° (Epoch: 26 November)

Event Time Altitude Azimuth Distance (km) Brightness Sun altitude
Rises 01:09:29 0° 200° (SSW) 2,812 6.7 -29.0°
Reaches altitude 10° 01:11:45 10° 207° (SSW) 1,917 5.8 -29.4°
Enters shadow 01:13:52 26° 225° (SW) 1,177 4.8 -29.9°
